Location: CCZU
(31.6840°N, 119.9550°E)
Time: 11:23:50
(UTC+08:00)

Hubble Space Telescope - Visible Passes

Search period start: 05 October 2023 00:00
Search period end: 15 October 2023 00:00
Orbit: 521 x 525 km, 28.5° (Epoch: 04 October)

Date Brightness Start Highest point End Pass type
(mag) Time Alt. Az. Time Alt. Az. Time Alt. Az.
05 Oct 3.0 18:15:07 10° S 18:16:35 12° SSE 18:18:02 10° SE visible
05 Oct 3.3 19:53:17 10° SW 19:54:01 14° SW 19:54:01 14° SW visible
06 Oct 2.9 17:58:45 10° S 18:00:54 14° SSE 18:03:03 10° ESE visible
06 Oct 2.6 19:37:34 10° SW 19:39:29 23° SW 19:39:29 23° SW visible
07 Oct 1.8 19:21:51 10° WSW 19:24:52 35° SSW 19:24:52 35° SSW visible
08 Oct 1.2 19:06:09 10° WSW 19:10:00 43° S 19:10:11 43° SSE visible
09 Oct 1.2 18:50:28 10° WSW 18:54:21 47° S 18:55:27 36° SE visible
10 Oct 1.1 18:34:45 10° WSW 18:38:40 50° S 18:40:40 25° ESE visible
10 Oct 3.9 20:15:26 10° W 20:15:41 12° W 20:15:41 12° W visible
11 Oct 1.1 18:19:03 10° WSW 18:23:00 52° S 18:25:52 17° ESE visible
11 Oct 3.4 19:59:46 10° W 20:00:52 17° WSW 20:00:52 17° WSW visible
12 Oct 1.2 18:03:21 10° WSW 18:07:18 53° S 18:11:03 11° E visible
12 Oct 2.7 19:44:06 10° W 19:46:03 25° WSW 19:46:03 25° WSW visible
13 Oct 2.1 19:28:26 10° W 19:31:15 33° SW 19:31:15 33° SW visible
14 Oct 1.8 19:12:46 10° W 19:16:27 35° SSW 19:16:27 35° SSW visible
